Time,TemperatureF,DewpointF,PressureIn,WindDirection,WindDirectionDegrees,WindSpeedMPH,WindSpeedGustMPH,Humidity,HourlyPrecipIn,Conditions,Clouds,dailyrainin,SolarRadiationWatts/m^2,SoftwareType,DateUTC
2013-02-14 00:00:00,76.3,73.5,29.97,SE,140,1.0,4.0,91,0.00,,FEW,0.00,0.00,VWS V14.01,2013-02-14 05:00:00,
2013-02-14 00:05:00,76.3,73.5,29.97,SSE,153,3.0,4.0,91,0.00,,FEW,0.00,0.00,VWS V14.01,2013-02-14 05:05:00,
2013-02-14 00:10:00,76.3,73.5,29.97,SE,129,2.0,4.0,91,0.00,,FEW,0.00,0.00,VWS V14.01,2013-02-14 05:10:00,
2013-02-14 00:15:00,76.4,73.6,29.97,SSE,163,2.0,4.0,91,0.00,,FEW,0.00,0.00,VWS V14.01,2013-02-14 05:15:00,
2013-02-14 00:20:00,76.5,73.7,29.97,South,182,3.0,5.0,91,0.00,,FEW,0.00,0.00,VWS V14.01,2013-02-14 05:20:00,
2013-02-14 00:25:00,76.5,73.7,29.97,SE,146,3.0,4.0,91,0.00,,FEW,0.00,0.00,VWS V14.01,2013-02-14 05:25:00,
2013-02-14 00:30:00,76.5,73.7,29.97,South,181,3.0,4.0,91,0.00,,FEW,0.00,0.00,VWS V14.01,2013-02-14 05:30:00,
2013-02-14 00:35:00,76.5,73.7,29.96,SSE,155,2.0,4.0,91,0.00,,FEW,0.00,0.00,VWS V14.01,2013-02-14 05:35:00,
2013-02-14 00:40:00,76.5,73.7,29.96,South,170,2.0,5.0,91,0.00,,FEW,0.00,0.00,VWS V14.01,2013-02-14 05:40:00,
2013-02-14 00:41:00,76.5,73.7,29.96,SE,139,4.0,5.0,91,0.00,,FEW,0.00,0.00,VWS V14.01,2013-02-14 05:41:00,
2013-02-14 00:45:00,76.5,73.7,29.96,SSE,155,1.0,5.0,91,0.00,,FEW,0.00,0.00,VWS V14.01,2013-02-14 05:45:00,
2013-02-14 00:46:00,76.5,73.7,29.96,ESE,121,2.0,5.0,91,0.00,,FEW,0.00,0.00,VWS V14.01,2013-02-14 05:46:00,
2013-02-14 00:50:00,76.5,73.7,29.96,SSE,149,4.0,5.0,91,0.00,,FEW,0.00,0.00,VWS V14.01,2013-02-14 05:50:00,
2013-02-14 00:51:00,76.4,73.6,29.96,SSE,150,3.0,5.0,91,0.00,,FEW,0.00,0.00,VWS V14.01,2013-02-14 05:51:00,
2013-02-14 00:55:00,76.4,73.6,29.96,SSE,150,2.0,4.0,91,0.00,,FEW,0.00,0.00,VWS V14.01,2013-02-14 05:55:00,
2013-02-14 00:56:00,76.3,73.5,29.96,SSE,154,2.0,4.0,91,0.00,,FEW,0.00,0.00,VWS V14.01,2013-02-14 05:56:00,
2013-02-14 01:00:00,76.2,73.1,29.96,SE,146,1.0,5.0,90,0.00,,FEW,0.00,0.00,VWS V14.01,2013-02-14 06:00:00,
2013-02-14 01:01:00,76.2,73.1,29.96,ESE,123,1.0,5.0,90,0.00,,FEW,0.00,0.00,VWS V14.01,2013-02-14 06:01:00,
2013-02-14 01:05:00,76.0,72.9,29.96,SSE,150,2.0,5.0,90,0.00,,FEW,0.00,0.00,VWS V14.01,2013-02-14 06:05:00,
2013-02-14 01:06:00,76.0,72.9,29.96,SE,144,3.0,5.0,90,0.00,,FEW,0.00,0.00,VWS V14.01,2013-02-14 06:06:00,
2013-02-14 01:10:00,75.8,72.7,29.96,SSE,151,4.0,5.0,90,0.00,,FEW,0.00,0.00,VWS V14.01,2013-02-14 06:10:00,
2013-02-14 01:11:00,75.8,72.7,29.96,SE,145,4.0,5.0,90,0.00,,FEW,0.00,0.00,VWS V14.01,2013-02-14 06:11:00,
2013-02-14 01:15:00,75.6,72.5,29.95,SE,144,3.0,4.0,90,0.00,,FEW,0.00,0.00,VWS V14.01,2013-02-14 06:15:00,
2013-02-14 01:16:00,75.6,72.5,29.95,SE,146,2.0,4.0,90,0.00,,FEW,0.00,0.00,VWS V14.01,2013-02-14 06:16:00,
2013-02-14 01:17:00,75.6,72.5,29.95,SSE,154,2.0,4.0,90,0.00,,FEW,0.00,0.00,VWS V14.01,2013-02-14 06:17:00,
2013-02-14 01:20:00,75.6,72.1,29.95,SE,139,1.0,5.0,89,0.00,,FEW,0.00,0.00,VWS V14.01,2013-02-14 06:20:00,
2013-02-14 01:21:00,75.6,72.1,29.95,SE,139,1.0,5.0,89,0.00,,FEW,0.00,0.00,VWS V14.01,2013-02-14 06:21:00,
2013-02-14 01:22:00,75.7,72.2,29.95,SE,139,1.0,2.0,89,0.00,,FEW,0.00,0.00,VWS V14.01,2013-02-14 06:22:00,
2013-02-14 01:26:00,75.7,72.2,29.95,SE,135,1.0,3.0,89,0.00,,FEW,0.00,0.00,VWS V14.01,2013-02-14 06:26:00,
2013-02-14 01:27:00,75.7,72.2,29.95,SE,127,3.0,5.0,89,0.00,,FEW,0.00,0.00,VWS V14.01,2013-02-14 06:27:00,
2013-02-14 01:30:00,75.8,72.7,29.94,SE,144,4.0,5.0,90,0.00,,FEW,0.00,0.00,VWS V14.01,2013-02-14 06:30:00,
2013-02-14 01:31:00,75.7,72.6,29.94,South,169,2.0,5.0,90,0.00,,FEW,0.00,0.00,VWS V14.01,2013-02-14 06:31:00,
2013-02-14 01:32:00,75.8,72.7,29.94,SSE,151,3.0,5.0,90,0.00,,FEW,0.00,0.00,VWS V14.01,2013-02-14 06:32:00,
2013-02-14 01:36:00,75.8,72.7,29.94,SE,142,3.0,5.0,90,0.00,,FEW,0.00,0.00,VWS V14.01,2013-02-14 06:36:00,
2013-02-14 01:37:00,75.8,72.7,29.94,SE,141,2.0,5.0,90,0.00,,FEW,0.00,0.00,VWS V14.01,2013-02-14 06:37:00,
2013-02-14 01:40:00,75.8,72.3,29.94,SSE,161,1.0,5.0,89,0.00,,FEW,0.00,0.00,VWS V14.01,2013-02-14 06:40:00,
2013-02-14 01:41:00,75.8,72.3,29.94,SSE,161,1.0,5.0,89,0.00,,FEW,0.00,0.00,VWS V14.01,2013-02-14 06:41:00,
2013-02-14 01:42:00,75.8,72.3,29.94,SE,144,2.0,3.0,89,0.00,,FEW,0.00,0.00,VWS V14.01,2013-02-14 06:42:00,
2013-02-14 01:43:00,75.8,72.3,29.94,SSE,163,3.0,6.0,89,0.00,,FEW,0.00,0.00,VWS V14.01,2013-02-14 06:43:00,
2013-02-14 01:46:00,75.7,72.2,29.94,SE,132,3.0,6.0,89,0.00,,FEW,0.00,0.00,VWS V14.01,2013-02-14 06:46:00,
2013-02-14 01:47:00,75.7,72.2,29.94,SSE,155,2.0,6.0,89,0.00,,FEW,0.00,0.00,VWS V14.01,2013-02-14 06:47:00,
2013-02-14 01:48:00,75.7,72.2,29.94,SSE,157,2.0,6.0,89,0.00,,FEW,0.00,0.00,VWS V14.01,2013-02-14 06:48:00,
2013-02-14 01:50:00,75.7,72.2,29.94,SSE,157,1.0,6.0,89,0.00,,FEW,0.00,0.00,VWS V14.01,2013-02-14 06:50:00,
2013-02-14 01:52:00,75.7,72.2,29.94,SSE,150,4.0,4.0,89,0.00,,FEW,0.00,0.00,VWS V14.01,2013-02-14 06:52:00,
2013-02-14 01:53:00,75.7,72.2,29.94,ESE,115,2.0,4.0,89,0.00,,FEW,0.00,0.00,VWS V14.01,2013-02-14 06:53:00,
2013-02-14 01:57:00,75.8,72.7,29.94,SSE,147,2.0,5.0,90,0.00,,FEW,0.00,0.00,VWS V14.01,2013-02-14 06:57:00,
2013-02-14 01:58:00,75.8,72.7,29.94,SE,128,3.0,5.0,90,0.00,,FEW,0.00,0.00,VWS V14.01,2013-02-14 06:58:00,
2013-02-14 02:00:00,75.9,72.8,29.94,SSE,156,2.0,5.0,90,0.00,,FEW,0.00,0.00,VWS V14.01,2013-02-14 07:00:00,
2013-02-14 02:02:00,75.9,72.8,29.94,SE,130,2.0,3.0,90,0.00,,FEW,0.00,0.00,VWS V14.01,2013-02-14 07:02:00,
2013-02-14 02:03:00,76.0,72.9,29.94,SSE,157,1.0,4.0,90,0.00,,FEW,0.00,0.00,VWS V14.01,2013-02-14 07:03:00,
2013-02-14 02:07:00,76.1,73.0,29.94,South,174,2.0,4.0,90,0.00,,FEW,0.00,0.00,VWS V14.01,2013-02-14 07:07:00,
2013-02-14 02:08:00,76.1,73.0,29.94,SSE,163,2.0,4.0,90,0.00,,FEW,0.00,0.00,VWS V14.01,2013-02-14 07:08:00,
2013-02-14 02:10:00,76.1,73.0,29.94,South,169,1.0,5.0,90,0.00,,FEW,0.00,0.00,VWS V14.01,2013-02-14 07:10:00,
2013-02-14 02:12:00,76.2,73.1,29.94,South,174,2.0,3.0,90,0.00,,FEW,0.00,0.00,VWS V14.01,2013-02-14 07:12:00,
2013-02-14 02:13:00,76.2,73.1,29.94,SE,136,2.0,3.0,90,0.00,,FEW,0.00,0.00,VWS V14.01,2013-02-14 07:13:00,
2013-02-14 02:17:00,76.2,73.1,29.93,SSE,148,0.0,6.0,90,0.00,,FEW,0.00,0.00,VWS V14.01,2013-02-14 07:17:00,
2013-02-14 02:18:00,76.2,73.1,29.93,South,178,3.0,6.0,90,0.00,,FEW,0.00,0.00,VWS V14.01,2013-02-14 07:18:00,
2013-02-14 02:19:00,76.2,73.1,29.93,SE,146,2.0,6.0,90,0.00,,FEW,0.00,0.00,VWS V14.01,2013-02-14 07:19:00,
2013-02-14 02:20:00,76.2,73.1,29.93,SSE,153,4.0,6.0,90,0.00,,FEW,0.00,0.00,VWS V14.01,2013-02-14 07:20:00,
2013-02-14 02:22:00,76.2,73.1,29.93,South,187,3.0,4.0,90,0.00,,FEW,0.00,0.00,VWS V14.01,2013-02-14 07:22:00,
2013-02-14 02:23:00,76.2,73.1,29.93,SE,135,3.0,4.0,90,0.00,,FEW,0.00,0.00,VWS V14.01,2013-02-14 07:23:00,
2013-02-14 02:24:00,76.2,73.1,29.93,South,178,3.0,4.0,90,0.00,,FEW,0.00,0.00,VWS V14.01,2013-02-14 07:24:00,
2013-02-14 02:27:00,76.2,73.1,29.93,SSW,195,3.0,6.0,90,0.00,,FEW,0.00,0.00,VWS V14.01,2013-02-14 07:27:00,
2013-02-14 02:28:00,76.2,73.1,29.93,South,169,3.0,6.0,90,0.00,,FEW,0.00,0.00,VWS V14.01,2013-02-14 07:28:00,
2013-02-14 02:29:00,76.2,73.1,29.93,SW,227,3.0,6.0,90,0.00,,FEW,0.00,0.00,VWS V14.01,2013-02-14 07:29:00,
2013-02-14 02:30:00,76.2,73.4,29.93,SE,145,5.0,6.0,91,0.00,,FEW,0.00,0.00,VWS V14.01,2013-02-14 07:30:00,
2013-02-14 02:32:00,76.2,73.4,29.93,SSE,157,5.0,5.0,91,0.00,,FEW,0.00,0.00,VWS V14.01,2013-02-14 07:32:00,
2013-02-14 02:33:00,76.3,73.5,29.93,SSE,157,3.0,5.0,91,0.00,,FEW,0.00,0.00,VWS V14.01,2013-02-14 07:33:00,
2013-02-14 02:34:00,76.3,73.5,29.93,South,172,3.0,5.0,91,0.00,,FEW,0.00,0.00,VWS V14.01,2013-02-14 07:34:00,
2013-02-14 02:37:00,76.3,73.5,29.93,SSW,196,3.0,5.0,91,0.00,,FEW,0.00,0.00,VWS V14.01,2013-02-14 07:37:00,
2013-02-14 02:38:00,76.3,73.5,29.93,SSW,202,3.0,5.0,91,0.00,,FEW,0.00,0.00,VWS V14.01,2013-02-14 07:38:00,
2013-02-14 02:39:00,76.4,73.6,29.93,South,172,3.0,5.0,91,0.00,,FEW,0.00,0.00,VWS V14.01,2013-02-14 07:39:00,
2013-02-14 02:40:00,76.4,73.6,29.93,SSE,165,2.0,5.0,91,0.00,,FEW,0.00,0.00,VWS V14.01,2013-02-14 07:40:00,
2013-02-14 02:42:00,76.4,73.6,29.93,SW,232,4.0,5.0,91,0.00,,FEW,0.00,0.00,VWS V14.01,2013-02-14 07:42:00,
2013-02-14 02:43:00,76.4,73.6,29.93,SSW,198,4.0,5.0,91,0.00,,FEW,0.00,0.00,VWS V14.01,2013-02-14 07:43:00,
2013-02-14 02:44:00,76.4,73.6,29.93,South,186,2.0,7.0,91,0.00,,FEW,0.00,0.00,VWS V14.01,2013-02-14 07:44:00,
2013-02-14 02:47:00,76.5,73.7,29.92,SSE,163,3.0,7.0,91,0.00,,FEW,0.00,0.00,VWS V14.01,2013-02-14 07:47:00,
2013-02-14 02:48:00,76.5,73.7,29.92,South,179,8.0,8.0,91,0.00,,FEW,0.00,0.00,VWS V14.01,2013-02-14 07:48:00,
2013-02-14 02:49:00,76.5,73.7,29.92,SE,133,4.0,8.0,91,0.00,,FEW,0.00,0.00,VWS V14.01,2013-02-14 07:49:00,
2013-02-14 02:50:00,76.5,74.0,29.92,South,188,4.0,8.0,92,0.00,,FEW,0.00,0.00,VWS V14.01,2013-02-14 07:50:00,
2013-02-14 02:52:00,76.5,74.0,29.92,South,184,6.0,6.0,92,0.00,,FEW,0.00,0.00,VWS V14.01,2013-02-14 07:52:00,
2013-02-14 02:53:00,76.5,74.0,29.92,South,190,2.0,7.0,92,0.00,,FEW,0.00,0.00,VWS V14.01,2013-02-14 07:53:00,
2013-02-14 02:54:00,76.6,74.1,29.92,South,173,3.0,7.0,92,0.00,,FEW,0.00,0.00,VWS V14.01,2013-02-14 07:54:00,
2013-02-14 02:58:00,76.6,74.1,29.92,SSW,198,3.0,7.0,92,0.00,,FEW,0.00,0.00,VWS V14.01,2013-02-14 07:58:00,
2013-02-14 02:59:00,76.6,74.1,29.92,SSE,163,3.0,7.0,92,0.00,,FEW,0.00,0.00,VWS V14.01,2013-02-14 07:59:00,
2013-02-14 03:00:00,76.6,74.1,29.92,South,173,5.0,7.0,92,0.00,,FEW,0.00,0.00,VWS V14.01,2013-02-14 08:00:00,
2013-02-14 03:03:00,76.6,74.1,29.92,South,186,5.0,6.0,92,0.00,,FEW,0.00,0.00,VWS V14.01,2013-02-14 08:03:00,
2013-02-14 03:04:00,76.6,74.1,29.92,SSW,196,3.0,6.0,92,0.00,,FEW,0.00,0.00,VWS V14.01,2013-02-14 08:04:00,
2013-02-14 03:08:00,76.6,74.1,29.92,SSE,157,4.0,6.0,92,0.00,,FEW,0.00,0.00,VWS V14.01,2013-02-14 08:08:00,
2013-02-14 03:09:00,76.6,74.1,29.92,South,179,3.0,6.0,92,0.00,,FEW,0.00,0.00,VWS V14.01,2013-02-14 08:09:00,
2013-02-14 03:10:00,76.6,74.1,29.92,SSW,203,2.0,6.0,92,0.00,,FEW,0.00,0.00,VWS V14.01,2013-02-14 08:10:00,
2013-02-14 03:13:00,76.6,74.1,29.92,SSW,212,2.0,6.0,92,0.00,,FEW,0.00,0.00,VWS V14.01,2013-02-14 08:13:00,
2013-02-14 03:14:00,76.6,74.1,29.92,South,181,2.0,6.0,92,0.00,,FEW,0.00,0.00,VWS V14.01,2013-02-14 08:14:00,
2013-02-14 03:18:00,76.6,74.1,29.91,South,172,2.0,6.0,92,0.00,,FEW,0.00,0.00,VWS V14.01,2013-02-14 08:18:00,
2013-02-14 03:19:00,76.6,74.1,29.91,South,185,1.0,6.0,92,0.00,,FEW,0.00,0.00,VWS V14.01,2013-02-14 08:19:00,
2013-02-14 03:20:00,76.6,74.1,29.91,South,184,5.0,6.0,92,0.00,,FEW,0.00,0.00,VWS V14.01,2013-02-14 08:20:00,
2013-02-14 03:23:00,76.6,74.1,29.91,South,183,2.0,5.0,92,0.00,,FEW,0.00,0.00,VWS V14.01,2013-02-14 08:23:00,
2013-02-14 03:24:00,76.6,74.1,29.91,South,177,3.0,5.0,92,0.00,,FEW,0.00,0.00,VWS V14.01,2013-02-14 08:24:00,
2013-02-14 03:25:00,76.6,74.1,29.91,SE,142,5.0,7.0,92,0.00,,FEW,0.00,0.00,VWS V14.01,2013-02-14 08:25:00,
2013-02-14 03:28:00,76.6,74.1,29.91,South,171,4.0,7.0,92,0.00,,FEW,0.00,0.00,VWS V14.01,2013-02-14 08:28:00,
2013-02-14 03:29:00,76.7,74.2,29.91,SSW,195,5.0,7.0,92,0.00,,FEW,0.00,0.00,VWS V14.01,2013-02-14 08:29:00,
2013-02-14 03:30:00,76.7,74.2,29.91,South,190,4.0,9.0,92,0.00,,FEW,0.00,0.00,VWS V14.01,2013-02-14 08:30:00,
2013-02-14 03:33:00,76.7,74.2,29.91,SSW,203,4.0,7.0,92,0.00,,FEW,0.00,0.00,VWS V14.01,2013-02-14 08:33:00,
2013-02-14 03:34:00,76.7,74.2,29.91,SSW,194,6.0,8.0,92,0.00,,FEW,0.00,0.00,VWS V14.01,2013-02-14 08:34:00,
2013-02-14 03:35:00,76.7,74.2,29.91,South,178,6.0,8.0,92,0.00,,FEW,0.00,0.00,VWS V14.01,2013-02-14 08:35:00,
2013-02-14 03:38:00,76.7,74.2,29.91,South,179,6.0,8.0,92,0.00,,FEW,0.00,0.00,VWS V14.01,2013-02-14 08:38:00,
2013-02-14 03:39:00,76.6,74.1,29.91,SW,222,7.0,8.0,92,0.00,,FEW,0.00,0.00,VWS V14.01,2013-02-14 08:39:00,
2013-02-14 03:40:00,76.6,74.1,29.91,South,190,9.0,9.0,92,0.00,,FEW,0.00,0.00,VWS V14.01,2013-02-14 08:40:00,
2013-02-14 03:43:00,76.6,74.4,29.91,SSE,163,7.0,7.0,93,0.00,,FEW,0.00,0.00,VWS V14.01,2013-02-14 08:43:00,
2013-02-14 03:44:00,76.6,74.1,29.91,SSW,201,3.0,7.0,92,0.00,,FEW,0.00,0.00,VWS V14.01,2013-02-14 08:44:00,
2013-02-14 03:45:00,76.6,74.4,29.91,South,183,6.0,7.0,93,0.00,,FEW,0.00,0.00,VWS V14.01,2013-02-14 08:45:00,
2013-02-14 03:48:00,76.6,74.4,29.91,South,172,6.0,7.0,93,0.00,,FEW,0.00,0.00,VWS V14.01,2013-02-14 08:48:00,
2013-02-14 03:49:00,76.6,74.4,29.91,South,183,6.0,7.0,93,0.00,,FEW,0.00,0.00,VWS V14.01,2013-02-14 08:49:00,
2013-02-14 03:50:00,76.6,74.4,29.91,SSW,203,6.0,7.0,93,0.00,,FEW,0.00,0.00,VWS V14.01,2013-02-14 08:50:00,
2013-02-14 03:53:00,76.6,74.4,29.91,South,169,7.0,7.0,93,0.00,,FEW,0.00,0.00,VWS V14.01,2013-02-14 08:53:00,
2013-02-14 03:54:00,76.6,74.4,29.91,SSW,206,7.0,7.0,93,0.00,,FEW,0.00,0.00,VWS V14.01,2013-02-14 08:54:00,
2013-02-14 03:56:00,76.6,74.4,29.91,SSW,211,4.0,7.0,93,0.00,,FEW,0.00,0.00,VWS V14.01,2013-02-14 08:56:00,
2013-02-14 03:58:00,76.6,74.4,29.91,South,182,3.0,7.0,93,0.00,,FEW,0.00,0.00,VWS V14.01,2013-02-14 08:58:00,
2013-02-14 03:59:00,76.6,74.4,29.91,South,180,6.0,7.0,93,0.00,,FEW,0.00,0.00,VWS V14.01,2013-02-14 08:59:00,
2013-02-14 04:00:00,76.6,74.4,29.91,SSW,196,4.0,7.0,93,0.00,,FEW,0.00,0.00,VWS V14.01,2013-02-14 09:00:00,
2013-02-14 04:01:00,76.6,74.4,29.91,SSW,196,4.0,7.0,93,0.00,,FEW,0.00,0.00,VWS V14.01,2013-02-14 09:01:00,
2013-02-14 04:04:00,76.6,74.4,29.91,South,191,6.0,7.0,93,0.00,,FEW,0.00,0.00,VWS V14.01,2013-02-14 09:04:00,
2013-02-14 04:06:00,76.6,74.4,29.91,South,184,6.0,8.0,93,0.00,,FEW,0.00,0.00,VWS V14.01,2013-02-14 09:06:00,
2013-02-14 04:09:00,76.6,74.4,29.91,SSW,195,7.0,8.0,93,0.00,,FEW,0.00,0.00,VWS V14.01,2013-02-14 09:09:00,
2013-02-14 04:10:00,76.6,74.4,29.91,SW,221,5.0,8.0,93,0.00,,FEW,0.00,0.00,VWS V14.01,2013-02-14 09:10:00,
2013-02-14 04:12:00,76.6,74.4,29.91,SW,217,5.0,6.0,93,0.00,,FEW,0.00,0.00,VWS V14.01,2013-02-14 09:12:00,
2013-02-14 04:14:00,76.6,74.4,29.91,SSW,192,6.0,7.0,93,0.00,,FEW,0.00,0.00,VWS V14.01,2013-02-14 09:14:00,
2013-02-14 04:15:00,76.6,74.4,29.91,SSW,210,4.0,7.0,93,0.00,,FEW,0.00,0.00,VWS V14.01,2013-02-14 09:15:00,
2013-02-14 04:17:00,76.6,74.4,29.91,SSW,197,7.0,7.0,93,0.00,,FEW,0.00,0.00,VWS V14.01,2013-02-14 09:17:00,
2013-02-14 04:19:00,76.6,74.4,29.91,SW,216,5.0,8.0,93,0.00,,FEW,0.00,0.00,VWS V14.01,2013-02-14 09:19:00,
2013-02-14 04:20:00,76.6,74.4,29.91,SSW,194,7.0,8.0,93,0.00,,FEW,0.00,0.00,VWS V14.01,2013-02-14 09:20:00,
2013-02-14 04:22:00,76.6,74.4,29.91,SSW,195,4.0,10.0,93,0.00,,FEW,0.00,0.00,VWS V14.01,2013-02-14 09:22:00,
2013-02-14 04:25:00,76.6,74.4,29.91,SSW,213,5.0,10.0,93,0.00,,FEW,0.00,0.00,VWS V14.01,2013-02-14 09:25:00,
2013-02-14 04:27:00,76.6,74.4,29.91,South,185,6.0,10.0,93,0.00,,FEW,0.00,0.00,VWS V14.01,2013-02-14 09:27:00,
2013-02-14 04:30:00,76.6,74.4,29.91,SSE,166,5.0,10.0,93,0.00,,FEW,0.00,0.00,VWS V14.01,2013-02-14 09:30:00,
2013-02-14 04:32:00,76.6,74.4,29.91,SSW,213,6.0,8.0,93,0.00,,FEW,0.00,0.00,VWS V14.01,2013-02-14 09:32:00,
2013-02-14 04:35:00,76.6,74.4,29.91,South,169,6.0,8.0,93,0.00,,FEW,0.00,0.00,VWS V14.01,2013-02-14 09:35:00,
2013-02-14 04:37:00,76.6,74.4,29.91,South,191,4.0,8.0,93,0.00,,FEW,0.00,0.00,VWS V14.01,2013-02-14 09:37:00,
2013-02-14 04:40:00,76.6,74.4,29.91,SSW,195,5.0,8.0,93,0.00,,FEW,0.00,0.00,VWS V14.01,2013-02-14 09:40:00,
2013-02-14 04:42:00,76.6,74.4,29.91,SSW,194,6.0,7.0,93,0.00,,FEW,0.00,0.00,VWS V14.01,2013-02-14 09:42:00,
2013-02-14 04:45:00,76.6,74.4,29.91,SSW,196,5.0,7.0,93,0.00,,FEW,0.00,0.00,VWS V14.01,2013-02-14 09:45:00,
2013-02-14 04:47:00,76.6,74.4,29.91,SW,220,4.0,7.0,93,0.00,,FEW,0.00,0.00,VWS V14.01,2013-02-14 09:47:00,
2013-02-14 04:50:00,76.6,74.4,29.91,South,187,7.0,7.0,93,0.00,,FEW,0.00,0.00,VWS V14.01,2013-02-14 09:50:00,
2013-02-14 04:52:00,76.6,74.4,29.91,SW,214,6.0,6.0,93,0.00,,FEW,0.00,0.00,VWS V14.01,2013-02-14 09:52:00,
2013-02-14 04:55:00,76.6,74.4,29.91,SSW,211,7.0,7.0,93,0.00,,FEW,0.00,0.00,VWS V14.01,2013-02-14 09:55:00,
2013-02-14 04:58:00,76.6,74.4,29.91,SSW,201,7.0,7.0,93,0.00,,FEW,0.00,0.00,VWS V14.01,2013-02-14 09:58:00,
2013-02-14 05:00:00,76.6,74.4,29.91,South,177,5.0,7.0,93,0.00,,FEW,0.00,0.00,VWS V14.01,2013-02-14 10:00:00,
2013-02-14 05:01:00,76.6,74.4,29.91,South,187,4.0,7.0,93,0.00,,FEW,0.00,0.00,VWS V14.01,2013-02-14 10:01:00,
2013-02-14 05:03:00,76.6,74.4,29.91,SSW,212,4.0,6.0,93,0.00,,FEW,0.00,0.00,VWS V14.01,2013-02-14 10:03:00,
2013-02-14 05:05:00,76.6,74.4,29.91,SSW,193,3.0,7.0,93,0.00,,FEW,0.00,0.00,VWS V14.01,2013-02-14 10:05:00,
2013-02-14 05:06:00,76.6,74.4,29.91,SSW,202,5.0,7.0,93,0.00,,FEW,0.00,0.00,VWS V14.01,2013-02-14 10:06:00,
2013-02-14 05:09:00,76.6,74.4,29.91,South,190,5.0,7.0,93,0.00,,FEW,0.00,0.00,VWS V14.01,2013-02-14 10:09:00,
2013-02-14 05:10:00,76.6,74.4,29.91,SSW,197,3.0,7.0,93,0.00,,FEW,0.00,0.00,VWS V14.01,2013-02-14 10:10:00,
2013-02-14 05:11:00,76.6,74.4,29.91,South,187,4.0,7.0,93,0.00,,FEW,0.00,0.00,VWS V14.01,2013-02-14 10:11:00,
2013-02-14 05:14:00,76.6,74.4,29.91,South,178,5.0,7.0,93,0.00,,FEW,0.00,0.00,VWS V14.01,2013-02-14 10:14:00,
2013-02-14 05:15:00,76.6,74.4,29.91,South,188,4.0,7.0,93,0.00,,FEW,0.00,0.00,VWS V14.01,2013-02-14 10:15:00,
2013-02-14 05:16:00,76.6,74.4,29.91,SSW,192,5.0,7.0,93,0.00,,FEW,0.00,0.00,VWS V14.01,2013-02-14 10:16:00,
2013-02-14 05:19:00,76.6,74.4,29.91,South,187,5.0,7.0,93,0.00,,FEW,0.00,0.00,VWS V14.01,2013-02-14 10:19:00,
2013-02-14 05:20:00,76.6,74.4,29.91,SSW,205,5.0,7.0,93,0.00,,FEW,0.00,0.00,VWS V14.01,2013-02-14 10:20:00,
2013-02-14 05:21:00,76.6,74.4,29.91,South,189,4.0,7.0,93,0.00,,FEW,0.00,0.00,VWS V14.01,2013-02-14 10:21:00,
2013-02-14 05:22:00,76.6,74.4,29.91,South,178,4.0,5.0,93,0.00,,FEW,0.00,0.00,VWS V14.01,2013-02-14 10:22:00,
2013-02-14 05:24:00,76.6,74.4,29.91,SSW,205,3.0,5.0,93,0.00,,FEW,0.00,0.00,VWS V14.01,2013-02-14 10:24:00,
2013-02-14 05:26:00,76.6,74.4,29.91,SSW,192,4.0,6.0,93,0.00,,FEW,0.00,0.00,VWS V14.01,2013-02-14 10:26:00,
2013-02-14 05:27:00,76.6,74.4,29.91,SW,220,4.0,6.0,93,0.00,,FEW,0.00,0.00,VWS V14.01,2013-02-14 10:27:00,
2013-02-14 05:30:00,76.6,74.4,29.91,South,190,4.0,6.0,93,0.00,,FEW,0.00,0.00,VWS V14.01,2013-02-14 10:30:00,
2013-02-14 05:31:00,76.6,74.8,29.91,SSW,202,3.0,6.0,94,0.00,,FEW,0.00,0.00,VWS V14.01,2013-02-14 10:31:00,
2013-02-14 05:32:00,76.6,74.8,29.91,SSW,196,2.0,3.0,94,0.00,,FEW,0.00,0.00,VWS V14.01,2013-02-14 10:32:00,
2013-02-14 05:35:00,76.6,74.8,29.91,SSW,211,7.0,7.0,94,0.00,,FEW,0.00,0.00,VWS V14.01,2013-02-14 10:35:00,
2013-02-14 05:36:00,76.6,74.8,29.91,South,188,4.0,7.0,94,0.00,,FEW,0.00,0.00,VWS V14.01,2013-02-14 10:36:00,
2013-02-14 05:37:00,76.6,74.8,29.91,SSW,199,5.0,7.0,94,0.00,,FEW,0.00,0.00,VWS V14.01,2013-02-14 10:37:00,
2013-02-14 05:40:00,76.6,74.8,29.91,SSW,207,6.0,7.0,94,0.00,,FEW,0.00,0.00,VWS V14.01,2013-02-14 10:40:00,
2013-02-14 05:41:00,76.6,74.8,29.91,SSW,192,4.0,7.0,94,0.00,,FEW,0.00,0.00,VWS V14.01,2013-02-14 10:41:00,
2013-02-14 05:42:00,76.6,74.8,29.91,South,180,3.0,5.0,94,0.00,,FEW,0.00,0.00,VWS V14.01,2013-02-14 10:42:00,
2013-02-14 05:46:00,76.6,74.8,29.92,SSW,194,6.0,7.0,94,0.00,,FEW,0.00,0.00,VWS V14.01,2013-02-14 10:46:00,
2013-02-14 05:47:00,76.6,74.8,29.92,SSW,210,4.0,7.0,94,0.00,,FEW,0.00,0.00,VWS V14.01,2013-02-14 10:47:00,
2013-02-14 05:50:00,76.5,74.7,29.92,South,191,4.0,7.0,94,0.00,,FEW,0.00,0.00,VWS V14.01,2013-02-14 10:50:00,
2013-02-14 05:51:00,76.5,74.7,29.92,SSW,207,5.0,7.0,94,0.00,,FEW,0.00,0.00,VWS V14.01,2013-02-14 10:51:00,
2013-02-14 05:52:00,76.5,74.7,29.92,SSW,211,4.0,6.0,94,0.00,,FEW,0.00,0.00,VWS V14.01,2013-02-14 10:52:00,
2013-02-14 05:56:00,76.5,74.7,29.92,SW,219,4.0,6.0,94,0.00,,FEW,0.00,0.00,VWS V14.01,2013-02-14 10:56:00,
2013-02-14 05:57:00,76.5,74.7,29.92,SSW,196,6.0,6.0,94,0.00,,FEW,0.00,0.00,VWS V14.01,2013-02-14 10:57:00,
2013-02-14 06:00:00,76.4,74.6,29.92,SSW,205,4.0,6.0,94,0.00,,FEW,0.00,0.00,VWS V14.01,2013-02-14 11:00:00,
2013-02-14 06:01:00,76.5,74.7,29.92,SW,217,6.0,6.0,94,0.00,,FEW,0.00,0.00,VWS V14.01,2013-02-14 11:01:00,
2013-02-14 06:02:00,76.5,74.7,29.92,SSW,199,2.0,7.0,94,0.00,,FEW,0.00,0.00,VWS V14.01,2013-02-14 11:02:00,
2013-02-14 06:06:00,76.5,74.7,29.92,South,190,2.0,7.0,94,0.00,,FEW,0.00,0.00,VWS V14.01,2013-02-14 11:06:00,
2013-02-14 06:07:00,76.4,74.6,29.92,SSW,192,4.0,7.0,94,0.00,,FEW,0.00,0.00,VWS V14.01,2013-02-14 11:07:00,
2013-02-14 06:10:00,76.4,74.6,29.92,SSW,192,6.0,7.0,94,0.00,,FEW,0.00,0.00,VWS V14.01,2013-02-14 11:10:00,
2013-02-14 06:11:00,76.4,74.6,29.92,SSW,192,6.0,7.0,94,0.00,,FEW,0.00,0.00,VWS V14.01,2013-02-14 11:11:00,
2013-02-14 06:12:00,76.4,74.6,29.92,South,173,3.0,6.0,94,0.00,,FEW,0.00,0.00,VWS V14.01,2013-02-14 11:12:00,
2013-02-14 06:16:00,76.3,74.4,29.93,SSW,194,5.0,7.0,94,0.00,,FEW,0.00,0.00,VWS V14.01,2013-02-14 11:16:00,
2013-02-14 06:17:00,76.3,74.4,29.93,SSW,199,4.0,7.0,94,0.00,,FEW,0.00,0.00,VWS V14.01,2013-02-14 11:17:00,
2013-02-14 06:20:00,76.2,74.0,29.93,SW,219,2.0,7.0,93,0.00,,FEW,0.00,0.00,VWS V14.01,2013-02-14 11:20:00,
2013-02-14 06:21:00,76.2,74.0,29.93,SSW,196,3.0,5.0,93,0.00,,FEW,0.00,0.00,VWS V14.01,2013-02-14 11:21:00,
2013-02-14 06:22:00,76.2,74.0,29.93,SSW,205,3.0,5.0,93,0.00,,FEW,0.00,0.00,VWS V14.01,2013-02-14 11:22:00,
2013-02-14 06:26:00,76.1,73.9,29.93,SSW,203,6.0,6.0,93,0.00,,FEW,0.00,0.00,VWS V14.01,2013-02-14 11:26:00,
2013-02-14 06:27:00,76.1,73.9,29.93,SW,223,3.0,6.0,93,0.00,,FEW,0.00,0.00,VWS V14.01,2013-02-14 11:27:00,
2013-02-14 06:30:00,76.0,73.8,29.93,SW,217,3.0,6.0,93,0.00,,FEW,0.00,0.00,VWS V14.01,2013-02-14 11:30:00,
2013-02-14 06:31:00,76.0,73.8,29.93,South,188,3.0,3.0,93,0.00,,FEW,0.00,0.00,VWS V14.01,2013-02-14 11:31:00,
2013-02-14 06:32:00,76.0,73.8,29.93,SSW,209,2.0,3.0,93,0.00,,FEW,0.00,0.00,VWS V14.01,2013-02-14 11:32:00,
2013-02-14 06:33:00,75.9,73.7,29.93,SW,215,2.0,3.0,93,0.00,,FEW,0.00,0.00,VWS V14.01,2013-02-14 11:33:00,
2013-02-14 06:36:00,75.9,73.7,29.93,SSW,203,3.0,4.0,93,0.00,,FEW,0.00,0.00,VWS V14.01,2013-02-14 11:36:00,
2013-02-14 06:37:00,75.8,73.6,29.93,SSW,194,3.0,4.0,93,0.00,,FEW,0.00,0.00,VWS V14.01,2013-02-14 11:37:00,
2013-02-14 06:38:00,75.8,73.6,29.93,SW,219,2.0,4.0,93,0.00,,FEW,0.00,0.00,VWS V14.01,2013-02-14 11:38:00,
2013-02-14 06:40:00,75.8,73.6,29.93,SSW,193,3.0,5.0,93,0.00,,FEW,0.00,0.00,VWS V14.01,2013-02-14 11:40:00,
2013-02-14 06:41:00,75.8,73.6,29.93,SSW,198,4.0,5.0,93,0.00,,FEW,0.00,0.00,VWS V14.01,2013-02-14 11:41:00,
2013-02-14 06:42:00,75.8,73.6,29.93,SSW,202,6.0,6.0,93,0.00,,FEW,0.00,0.00,VWS V14.01,2013-02-14 11:42:00,
2013-02-14 06:43:00,75.8,73.6,29.93,SSW,193,4.0,6.0,93,0.00,,FEW,0.00,0.00,VWS V14.01,2013-02-14 11:43:00,
2013-02-14 06:47:00,75.8,73.6,29.94,SSW,194,3.0,6.0,93,0.00,,FEW,0.00,0.00,VWS V14.01,2013-02-14 11:47:00,
2013-02-14 06:48:00,75.8,73.6,29.94,SSW,198,3.0,6.0,93,0.00,,FEW,0.00,0.00,VWS V14.01,2013-02-14 11:48:00,
2013-02-14 06:50:00,75.8,73.6,29.94,SSW,212,3.0,6.0,93,0.00,,FEW,0.00,0.00,VWS V14.01,2013-02-14 11:50:00,
2013-02-14 06:52:00,75.8,73.6,29.94,SSW,212,2.0,3.0,93,0.00,,FEW,0.00,0.00,VWS V14.01,2013-02-14 11:52:00,
2013-02-14 06:53:00,75.8,73.6,29.94,SSW,196,2.0,3.0,93,0.00,,FEW,0.00,0.00,VWS V14.01,2013-02-14 11:53:00,
2013-02-14 06:57:00,75.8,73.6,29.94,South,187,3.0,4.0,93,0.00,,FEW,0.00,0.00,VWS V14.01,2013-02-14 11:57:00,
2013-02-14 06:58:00,75.8,73.6,29.94,SW,214,3.0,4.0,93,0.00,,FEW,0.00,0.00,VWS V14.01,2013-02-14 11:58:00,
2013-02-14 07:00:00,75.9,73.7,29.94,SW,229,2.0,4.0,93,0.00,,FEW,0.00,0.00,VWS V14.01,2013-02-14 12:00:00,
2013-02-14 07:02:00,75.9,73.7,29.94,South,184,4.0,5.0,93,0.00,,FEW,0.00,0.00,VWS V14.01,2013-02-14 12:02:00,
2013-02-14 07:03:00,75.9,73.7,29.94,SSW,200,2.0,5.0,93,0.00,,FEW,0.00,0.00,VWS V14.01,2013-02-14 12:03:00,
2013-02-14 07:07:00,76.0,73.8,29.94,SW,223,3.0,6.0,93,0.00,,FEW,0.00,5.00,VWS V14.01,2013-02-14 12:07:00,
2013-02-14 07:08:00,76.0,73.8,29.94,SSW,194,4.0,6.0,93,0.00,,FEW,0.00,5.00,VWS V14.01,2013-02-14 12:08:00,
2013-02-14 07:10:00,76.0,73.8,29.94,SSW,194,3.0,7.0,93,0.00,,FEW,0.00,7.00,VWS V14.01,2013-02-14 12:10:00,
2013-02-14 07:12:00,76.0,73.8,29.94,South,178,5.0,7.0,93,0.00,,FEW,0.00,7.00,VWS V14.01,2013-02-14 12:12:00,
2013-02-14 07:13:00,76.0,73.8,29.94,SW,218,7.0,7.0,93,0.00,,FEW,0.00,9.00,VWS V14.01,2013-02-14 12:13:00,
2013-02-14 07:14:00,76.0,73.8,29.94,SSW,207,6.0,7.0,93,0.00,,FEW,0.00,9.00,VWS V14.01,2013-02-14 12:14:00,
2013-02-14 07:17:00,76.0,73.8,29.94,SSW,200,6.0,7.0,93,0.00,,FEW,0.00,11.00,VWS V14.01,2013-02-14 12:17:00,
2013-02-14 07:18:00,76.0,73.8,29.94,South,173,3.0,7.0,93,0.00,,FEW,0.00,12.00,VWS V14.01,2013-02-14 12:18:00,
2013-02-14 07:19:00,76.0,73.8,29.94,SSE,159,3.0,7.0,93,0.00,,FEW,0.00,14.00,VWS V14.01,2013-02-14 12:19:00,
2013-02-14 07:20:00,76.1,73.6,29.94,South,178,2.0,7.0,92,0.00,,FEW,0.00,18.00,VWS V14.01,2013-02-14 12:20:00,
2013-02-14 07:22:00,76.1,73.9,29.94,SSE,167,3.0,4.0,93,0.00,,FEW,0.00,19.00,VWS V14.01,2013-02-14 12:22:00,
2013-02-14 07:23:00,76.2,73.7,29.94,SSW,205,2.0,5.0,92,0.00,,FEW,0.00,21.00,VWS V14.01,2013-02-14 12:23:00,
2013-02-14 07:24:00,76.2,73.7,29.94,South,178,3.0,5.0,92,0.00,,FEW,0.00,23.00,VWS V14.01,2013-02-14 12:24:00,
2013-02-14 07:27:00,76.2,73.7,29.94,South,182,2.0,5.0,92,0.00,,FEW,0.00,30.00,VWS V14.01,2013-02-14 12:27:00,
2013-02-14 07:28:00,76.3,73.8,29.94,SSW,196,2.0,5.0,92,0.00,,FEW,0.00,32.00,VWS V14.01,2013-02-14 12:28:00,
2013-02-14 07:29:00,76.3,73.8,29.94,SSW,195,2.0,5.0,92,0.00,,FEW,0.00,33.00,VWS V14.01,2013-02-14 12:29:00,
2013-02-14 07:30:00,76.3,74.1,29.95,SSW,192,2.0,5.0,93,0.00,,FEW,0.00,49.00,VWS V14.01,2013-02-14 12:30:00,
2013-02-14 07:32:00,76.4,74.2,29.95,SSW,194,1.0,3.0,93,0.00,,FEW,0.00,60.00,VWS V14.01,2013-02-14 12:32:00,
2013-02-14 07:33:00,76.4,74.2,29.95,SSE,161,1.0,3.0,93,0.00,,FEW,0.00,63.00,VWS V14.01,2013-02-14 12:33:00,
2013-02-14 07:34:00,76.4,74.2,29.95,SSE,159,2.0,3.0,93,0.00,,FEW,0.00,63.00,VWS V14.01,2013-02-14 12:34:00,
2013-02-14 07:37:00,76.6,74.4,29.95,SSE,158,3.0,4.0,93,0.00,,FEW,0.00,53.00,VWS V14.01,2013-02-14 12:37:00,
2013-02-14 07:39:00,76.6,74.4,29.95,SSW,196,2.0,4.0,93,0.00,,FEW,0.00,42.00,VWS V14.01,2013-02-14 12:39:00,
2013-02-14 07:40:00,76.6,74.1,29.95,SSW,195,4.0,5.0,92,0.00,,FEW,0.00,46.00,VWS V14.01,2013-02-14 12:40:00,
2013-02-14 07:42:00,76.6,74.1,29.95,SSE,162,4.0,4.0,92,0.00,,FEW,0.00,51.00,VWS V14.01,2013-02-14 12:42:00,
2013-02-14 07:44:00,76.6,74.1,29.95,SSW,193,5.0,5.0,92,0.00,,FEW,0.00,44.00,VWS V14.01,2013-02-14 12:44:00,
2013-02-14 07:48:00,76.6,74.1,29.95,South,182,3.0,6.0,92,0.00,,FEW,0.00,46.00,VWS V14.01,2013-02-14 12:48:00,
2013-02-14 07:49:00,76.6,74.1,29.95,SSW,205,3.0,6.0,92,0.00,,FEW,0.00,47.00,VWS V14.01,2013-02-14 12:49:00,
2013-02-14 07:50:00,76.7,74.2,29.95,South,175,2.0,6.0,92,0.00,,FEW,0.00,49.00,VWS V14.01,2013-02-14 12:50:00,
2013-02-14 07:53:00,76.7,74.2,29.95,SSW,196,4.0,6.0,92,0.00,,FEW,0.00,53.00,VWS V14.01,2013-02-14 12:53:00,
2013-02-14 07:54:00,76.7,74.2,29.95,South,188,4.0,6.0,92,0.00,,FEW,0.00,54.00,VWS V14.01,2013-02-14 12:54:00,
2013-02-14 07:55:00,76.7,74.2,29.95,South,191,3.0,6.0,92,0.00,,FEW,0.00,76.00,VWS V14.01,2013-02-14 12:55:00,
2013-02-14 07:58:00,76.8,74.3,29.95,SSW,194,3.0,6.0,92,0.00,,FEW,0.00,137.00,VWS V14.01,2013-02-14 12:58:00,
2013-02-14 07:59:00,76.8,74.3,29.95,SSE,159,4.0,6.0,92,0.00,,FEW,0.00,148.00,VWS V14.01,2013-02-14 12:59:00,
2013-02-14 08:00:00,76.8,74.3,29.95,SSW,197,5.0,7.0,92,0.00,,FEW,0.00,148.00,VWS V14.01,2013-02-14 13:00:00,
2013-02-14 08:03:00,76.9,74.4,29.96,South,172,8.0,8.0,92,0.00,,FEW,0.00,51.00,VWS V14.01,2013-02-14 13:03:00,
2013-02-14 08:04:00,76.9,74.4,29.96,SSW,194,7.0,8.0,92,0.00,,FEW,0.00,51.00,VWS V14.01,2013-02-14 13:04:00,
2013-02-14 08:05:00,76.9,74.4,29.96,SSW,205,7.0,8.0,92,0.00,,FEW,0.00,53.00,VWS V14.01,2013-02-14 13:05:00,
2013-02-14 08:08:00,76.9,74.4,29.96,SW,223,5.0,8.0,92,0.00,,FEW,0.00,53.00,VWS V14.01,2013-02-14 13:08:00,
2013-02-14 08:09:00,76.9,74.4,29.96,SSW,202,7.0,8.0,92,0.00,,FEW,0.00,54.00,VWS V14.01,2013-02-14 13:09:00,
2013-02-14 08:10:00,76.9,74.4,29.96,South,173,7.0,8.0,92,0.00,,FEW,0.00,105.00,VWS V14.01,2013-02-14 13:10:00,
2013-02-14 08:13:00,77.0,74.5,29.96,SSW,204,6.0,8.0,92,0.00,,FEW,0.00,188.00,VWS V14.01,2013-02-14 13:13:00,
2013-02-14 08:14:00,77.1,74.6,29.96,SSW,202,5.0,8.0,92,0.00,,FEW,0.00,53.00,VWS V14.01,2013-02-14 13:14:00,
2013-02-14 08:15:00,77.1,74.6,29.96,SSE,158,5.0,8.0,92,0.00,,FEW,0.00,53.00,VWS V14.01,2013-02-14 13:15:00,
2013-02-14 08:18:00,77.1,74.6,29.96,SSW,206,7.0,8.0,92,0.00,,FEW,0.00,47.00,VWS V14.01,2013-02-14 13:18:00,
2013-02-14 08:19:00,77.0,74.5,29.96,SSW,204,6.0,8.0,92,0.00,,FEW,0.00,49.00,VWS V14.01,2013-02-14 13:19:00,
2013-02-14 08:20:00,77.0,74.5,29.96,South,180,7.0,8.0,92,0.00,,FEW,0.00,49.00,VWS V14.01,2013-02-14 13:20:00,
2013-02-14 08:23:00,77.0,74.5,29.96,South,188,6.0,7.0,92,0.00,,FEW,0.00,44.00,VWS V14.01,2013-02-14 13:23:00,
2013-02-14 08:24:00,77.0,74.5,29.96,South,182,7.0,7.0,92,0.00,,FEW,0.00,46.00,VWS V14.01,2013-02-14 13:24:00,
2013-02-14 08:25:00,77.0,74.5,29.96,SSW,196,7.0,7.0,92,0.00,,FEW,0.00,46.00,VWS V14.01,2013-02-14 13:25:00,
2013-02-14 08:28:00,77.0,74.5,29.96,South,171,5.0,7.0,92,0.00,,FEW,0.00,54.00,VWS V14.01,2013-02-14 13:28:00,
2013-02-14 08:30:00,77.0,74.5,29.96,South,186,6.0,7.0,92,0.00,,FEW,0.00,62.00,VWS V14.01,2013-02-14 13:30:00,
2013-02-14 08:31:00,77.0,74.5,29.96,South,188,5.0,7.0,92,0.00,,FEW,0.00,102.00,VWS V14.01,2013-02-14 13:31:00,
2013-02-14 08:33:00,77.1,74.6,29.96,SSW,192,6.0,6.0,92,0.00,,FEW,0.00,262.00,VWS V14.01,2013-02-14 13:33:00,
2013-02-14 08:35:00,77.3,74.8,29.96,SSW,192,3.0,6.0,92,0.00,,FEW,0.00,225.00,VWS V14.01,2013-02-14 13:35:00,
2013-02-14 08:36:00,77.3,74.8,29.96,South,190,4.0,6.0,92,0.00,,FEW,0.00,283.00,VWS V14.01,2013-02-14 13:36:00,
2013-02-14 08:38:00,77.5,75.0,29.96,SSE,148,5.0,6.0,92,0.00,,FEW,0.00,287.00,VWS V14.01,2013-02-14 13:38:00,
2013-02-14 08:40:00,77.5,75.0,29.96,South,173,4.0,6.0,92,0.00,,FEW,0.00,290.00,VWS V14.01,2013-02-14 13:40:00,
2013-02-14 08:41:00,77.6,75.1,29.96,SSW,203,4.0,6.0,92,0.00,,FEW,0.00,294.00,VWS V14.01,2013-02-14 13:41:00,
2013-02-14 08:43:00,77.8,75.0,29.96,SSE,158,2.0,6.0,91,0.00,,FEW,0.00,304.00,VWS V14.01,2013-02-14 13:43:00,
2013-02-14 08:45:00,77.8,75.0,29.96,South,174,3.0,6.0,91,0.00,,FEW,0.00,308.00,VWS V14.01,2013-02-14 13:45:00,
2013-02-14 08:46:00,77.9,75.1,29.96,SSW,197,4.0,6.0,91,0.00,,FEW,0.00,313.00,VWS V14.01,2013-02-14 13:46:00,
2013-02-14 08:49:00,78.0,75.2,29.96,South,186,3.0,6.0,91,0.00,,FEW,0.00,315.00,VWS V14.01,2013-02-14 13:49:00,
2013-02-14 08:50:00,78.1,75.3,29.96,SSW,198,4.0,6.0,91,0.00,,FEW,0.00,327.00,VWS V14.01,2013-02-14 13:50:00,
2013-02-14 08:51:00,78.1,75.3,29.96,SSE,168,4.0,6.0,91,0.00,,FEW,0.00,330.00,VWS V14.01,2013-02-14 13:51:00,
2013-02-14 08:54:00,78.2,75.4,29.96,South,189,4.0,6.0,91,0.00,,FEW,0.00,338.00,VWS V14.01,2013-02-14 13:54:00,
2013-02-14 08:55:00,78.3,75.1,29.96,SSE,168,5.0,9.0,90,0.00,,FEW,0.00,341.00,VWS V14.01,2013-02-14 13:55:00,
2013-02-14 08:56:00,78.3,75.1,29.96,SSE,163,4.0,9.0,90,0.00,,FEW,0.00,343.00,VWS V14.01,2013-02-14 13:56:00,
2013-02-14 08:59:00,78.4,75.2,29.96,South,191,4.0,9.0,90,0.00,,FEW,0.00,353.00,VWS V14.01,2013-02-14 13:59:00,
2013-02-14 09:00:00,78.4,75.2,29.97,SW,219,7.0,9.0,90,0.00,,FEW,0.00,360.00,VWS V14.01,2013-02-14 14:00:00,
2013-02-14 09:01:00,78.4,75.2,29.97,SSW,204,5.0,9.0,90,0.00,,FEW,0.00,360.00,VWS V14.01,2013-02-14 14:01:00,
2013-02-14 09:04:00,78.3,75.1,29.97,South,184,6.0,8.0,90,0.00,,FEW,0.00,369.00,VWS V14.01,2013-02-14 14:04:00,
2013-02-14 09:06:00,78.2,74.7,29.97,SSW,197,6.0,8.0,89,0.00,,FEW,0.00,373.00,VWS V14.01,2013-02-14 14:06:00,
2013-02-14 09:09:00,78.2,75.0,29.97,SSE,167,5.0,8.0,90,0.00,,FEW,0.00,385.00,VWS V14.01,2013-02-14 14:09:00,
2013-02-14 09:10:00,78.2,75.0,29.97,SSW,193,6.0,8.0,90,0.00,,FEW,0.00,390.00,VWS V14.01,2013-02-14 14:10:00,
2013-02-14 09:11:00,78.2,75.0,29.97,SSW,193,5.0,8.0,90,0.00,,FEW,0.00,387.00,VWS V14.01,2013-02-14 14:11:00,
2013-02-14 09:12:00,78.2,75.0,29.97,South,189,6.0,6.0,90,0.00,,FEW,0.00,390.00,VWS V14.01,2013-02-14 14:12:00,
2013-02-14 09:14:00,78.2,75.0,29.97,South,186,7.0,7.0,90,0.00,,FEW,0.00,399.00,VWS V14.01,2013-02-14 14:14:00,
2013-02-14 09:16:00,78.3,75.1,29.97,SSW,198,5.0,7.0,90,0.00,,FEW,0.00,404.00,VWS V14.01,2013-02-14 14:16:00,
2013-02-14 09:17:00,78.3,75.1,29.97,SW,215,5.0,7.0,90,0.00,,FEW,0.00,410.00,VWS V14.01,2013-02-14 14:17:00,
2013-02-14 09:20:00,78.3,74.8,29.97,SSW,204,7.0,8.0,89,0.00,,FEW,0.00,418.00,VWS V14.01,2013-02-14 14:20:00,
2013-02-14 09:21:00,78.3,74.8,29.97,SSW,192,5.0,8.0,89,0.00,,FEW,0.00,420.00,VWS V14.01,2013-02-14 14:21:00,
2013-02-14 09:22:00,78.3,74.8,29.97,SSW,211,7.0,8.0,89,0.00,,FEW,0.00,424.00,VWS V14.01,2013-02-14 14:22:00,
2013-02-14 09:25:00,78.4,74.9,29.97,South,188,7.0,10.0,89,0.00,,FEW,0.00,429.00,VWS V14.01,2013-02-14 14:25:00,
2013-02-14 09:26:00,78.3,74.8,29.97,South,184,7.0,10.0,89,0.00,,FEW,0.00,434.00,VWS V14.01,2013-02-14 14:26:00,
2013-02-14 09:27:00,78.4,74.9,29.97,SSW,192,7.0,10.0,89,0.00,,FEW,0.00,436.00,VWS V14.01,2013-02-14 14:27:00,
2013-02-14 09:30:00,78.3,74.8,29.97,SSW,194,6.0,10.0,89,0.00,,FEW,0.00,429.00,VWS V14.01,2013-02-14 14:30:00,
2013-02-14 09:31:00,78.4,74.9,29.98,SSE,163,6.0,10.0,89,0.00,,FEW,0.00,429.00,VWS V14.01,2013-02-14 14:31:00,
2013-02-14 09:32:00,78.4,74.9,29.98,South,170,5.0,9.0,89,0.00,,FEW,0.00,429.00,VWS V14.01,2013-02-14 14:32:00,
2013-02-14 09:35:00,78.5,75.0,29.98,SSW,198,7.0,9.0,89,0.00,,FEW,0.00,483.00,VWS V14.01,2013-02-14 14:35:00,
2013-02-14 09:36:00,78.5,75.0,29.98,South,175,6.0,9.0,89,0.00,,FEW,0.00,480.00,VWS V14.01,2013-02-14 14:36:00,
2013-02-14 09:37:00,78.5,75.0,29.98,South,184,4.0,9.0,89,0.00,,FEW,0.00,473.00,VWS V14.01,2013-02-14 14:37:00,
2013-02-14 09:40:00,78.6,75.1,29.98,SSW,200,6.0,9.0,89,0.00,,FEW,0.00,475.00,VWS V14.01,2013-02-14 14:40:00,
2013-02-14 09:41:00,78.7,75.2,29.98,SSW,207,5.0,10.0,89,0.00,,FEW,0.00,478.00,VWS V14.01,2013-02-14 14:41:00,
2013-02-14 09:42:00,78.7,75.2,29.98,South,191,6.0,6.0,89,0.00,,FEW,0.00,483.00,VWS V14.01,2013-02-14 14:42:00,
2013-02-14 09:45:00,78.8,75.3,29.98,South,190,4.0,7.0,89,0.00,,FEW,0.00,494.00,VWS V14.01,2013-02-14 14:45:00,
2013-02-14 09:46:00,78.8,74.9,29.98,SSW,192,6.0,8.0,88,0.00,,FEW,0.00,494.00,VWS V14.01,2013-02-14 14:46:00,
2013-02-14 09:47:00,78.8,74.9,29.98,SSW,196,4.0,8.0,88,0.00,,FEW,0.00,494.00,VWS V14.01,2013-02-14 14:47:00,
2013-02-14 09:50:00,78.9,75.4,29.98,SSE,159,3.0,8.0,89,0.00,,FEW,0.00,515.00,VWS V14.01,2013-02-14 14:50:00,
2013-02-14 09:51:00,78.9,75.4,29.98,South,189,7.0,8.0,89,0.00,,FEW,0.00,517.00,VWS V14.01,2013-02-14 14:51:00,
2013-02-14 09:52:00,79.0,75.5,29.98,SSW,193,6.0,6.0,89,0.00,,FEW,0.00,510.00,VWS V14.01,2013-02-14 14:52:00,
2013-02-14 09:53:00,79.0,75.5,29.98,SSW,200,6.0,6.0,89,0.00,,FEW,0.00,510.00,VWS V14.01,2013-02-14 14:53:00,
2013-02-14 09:56:00,79.0,75.2,29.98,SSW,213,5.0,9.0,88,0.00,,FEW,0.00,529.00,VWS V14.01,2013-02-14 14:56:00,
2013-02-14 09:57:00,79.0,75.5,29.98,SSW,205,7.0,9.0,89,0.00,,FEW,0.00,534.00,VWS V14.01,2013-02-14 14:57:00,
2013-02-14 09:58:00,79.0,75.2,29.98,South,188,5.0,9.0,88,0.00,,FEW,0.00,533.00,VWS V14.01,2013-02-14 14:58:00,
2013-02-14 10:00:00,78.9,75.1,29.99,SW,221,8.0,9.0,88,0.00,,FEW,0.00,541.00,VWS V14.01,2013-02-14 15:00:00,
2013-02-14 10:01:00,78.9,75.1,29.99,SW,221,7.0,9.0,88,0.00,,FEW,0.00,541.00,VWS V14.01,2013-02-14 15:01:00,
2013-02-14 10:03:00,78.9,75.4,29.99,South,182,5.0,8.0,89,0.00,,FEW,0.00,547.00,VWS V14.01,2013-02-14 15:03:00,
2013-02-14 10:06:00,79.0,75.5,29.99,SSW,193,4.0,8.0,89,0.00,,FEW,0.00,557.00,VWS V14.01,2013-02-14 15:06:00,
2013-02-14 10:08:00,79.1,75.6,29.99,South,186,6.0,8.0,89,0.00,,FEW,0.00,566.00,VWS V14.01,2013-02-14 15:08:00,
2013-02-14 10:10:00,79.2,75.3,29.99,SSW,196,6.0,8.0,88,0.00,,FEW,0.00,573.00,VWS V14.01,2013-02-14 15:10:00,
2013-02-14 10:11:00,79.2,75.3,29.99,SSW,196,6.0,8.0,88,0.00,,FEW,0.00,573.00,VWS V14.01,2013-02-14 15:11:00,
2013-02-14 10:12:00,79.2,75.3,29.99,SSW,203,4.0,6.0,88,0.00,,FEW,0.00,573.00,VWS V14.01,2013-02-14 15:12:00,
2013-02-14 10:13:00,79.3,75.4,29.99,SSW,207,5.0,6.0,88,0.00,,FEW,0.00,575.00,VWS V14.01,2013-02-14 15:13:00,
2013-02-14 10:16:00,79.5,75.6,29.99,South,170,3.0,8.0,88,0.00,,FEW,0.00,584.00,VWS V14.01,2013-02-14 15:16:00,
2013-02-14 10:17:00,79.6,75.7,29.99,SSE,162,6.0,8.0,88,0.00,,FEW,0.00,584.00,VWS V14.01,2013-02-14 15:17:00,
2013-02-14 10:18:00,79.6,75.7,29.99,South,169,5.0,8.0,88,0.00,,FEW,0.00,587.00,VWS V14.01,2013-02-14 15:18:00,
2013-02-14 10:20:00,79.5,75.6,29.99,SSW,212,3.0,8.0,88,0.00,,FEW,0.00,589.00,VWS V14.01,2013-02-14 15:20:00,
2013-02-14 10:21:00,79.5,75.6,29.99,SSW,212,3.0,8.0,88,0.00,,FEW,0.00,589.00,VWS V14.01,2013-02-14 15:21:00,
2013-02-14 10:22:00,79.5,75.6,29.99,SSW,192,5.0,6.0,88,0.00,,FEW,0.00,598.00,VWS V14.01,2013-02-14 15:22:00,
2013-02-14 10:23:00,79.6,75.7,29.99,South,180,5.0,8.0,88,0.00,,FEW,0.00,594.00,VWS V14.01,2013-02-14 15:23:00,
2013-02-14 10:26:00,79.5,75.6,29.99,South,182,7.0,8.0,88,0.00,,FEW,0.00,610.00,VWS V14.01,2013-02-14 15:26:00,
2013-02-14 10:27:00,79.5,75.6,29.99,SSW,198,8.0,8.0,88,0.00,,FEW,0.00,615.00,VWS V14.01,2013-02-14 15:27:00,
2013-02-14 10:28:00,79.4,75.2,29.99,South,182,8.0,8.0,87,0.00,,FEW,0.00,613.00,VWS V14.01,2013-02-14 15:28:00,
2013-02-14 10:30:00,79.4,75.5,29.98,SSE,168,6.0,8.0,88,0.00,,FEW,0.00,624.00,VWS V14.01,2013-02-14 15:30:00,
2013-02-14 10:31:00,79.4,75.5,29.98,SSW,196,5.0,8.0,88,0.00,,FEW,0.00,624.00,VWS V14.01,2013-02-14 15:31:00,
2013-02-14 10:32:00,79.5,75.6,29.98,SW,224,5.0,7.0,88,0.00,,FEW,0.00,624.00,VWS V14.01,2013-02-14 15:32:00,
2013-02-14 10:33:00,79.5,75.6,29.98,SSW,198,3.0,7.0,88,0.00,,FEW,0.00,628.00,VWS V14.01,2013-02-14 15:33:00,
2013-02-14 10:36:00,79.5,75.6,29.98,South,180,8.0,8.0,88,0.00,,FEW,0.00,631.00,VWS V14.01,2013-02-14 15:36:00,
2013-02-14 10:37:00,79.4,75.5,29.98,South,178,9.0,9.0,88,0.00,,FEW,0.00,631.00,VWS V14.01,2013-02-14 15:37:00,
2013-02-14 10:38:00,79.5,75.6,29.98,South,180,9.0,9.0,88,0.00,,FEW,0.00,642.00,VWS V14.01,2013-02-14 15:38:00,
2013-02-14 10:40:00,79.4,75.2,29.98,SSW,208,9.0,9.0,87,0.00,,FEW,0.00,650.00,VWS V14.01,2013-02-14 15:40:00,
2013-02-14 10:41:00,79.4,75.2,29.98,SSW,205,7.0,9.0,87,0.00,,FEW,0.00,650.00,VWS V14.01,2013-02-14 15:41:00,
2013-02-14 10:42:00,79.5,75.3,29.98,SSW,211,3.0,9.0,87,0.00,,FEW,0.00,668.00,VWS V14.01,2013-02-14 15:42:00,
2013-02-14 10:43:00,79.5,75.3,29.98,SSW,204,7.0,10.0,87,0.00,,FEW,0.00,668.00,VWS V14.01,2013-02-14 15:43:00,
2013-02-14 10:44:00,79.5,75.3,29.98,South,169,5.0,10.0,87,0.00,,FEW,0.00,668.00,VWS V14.01,2013-02-14 15:44:00,
2013-02-14 10:46:00,79.5,75.3,29.99,South,184,7.0,11.0,87,0.00,,FEW,0.00,680.00,VWS V14.01,2013-02-14 15:46:00,
2013-02-14 10:47:00,79.5,75.3,29.99,SSW,201,8.0,11.0,87,0.00,,FEW,0.00,698.00,VWS V14.01,2013-02-14 15:47:00,
2013-02-14 10:48:00,79.5,75.3,29.99,SSW,200,7.0,11.0,87,0.00,,FEW,0.00,621.00,VWS V14.01,2013-02-14 15:48:00,
2013-02-14 10:49:00,79.5,75.3,29.99,SSW,192,8.0,11.0,87,0.00,,FEW,0.00,670.00,VWS V14.01,2013-02-14 15:49:00,
2013-02-14 10:50:00,79.6,75.4,29.99,SSW,195,6.0,11.0,87,0.00,,FEW,0.00,691.00,VWS V14.01,2013-02-14 15:50:00,
2013-02-14 10:52:00,79.6,75.4,29.99,SSW,200,6.0,6.0,87,0.00,,FEW,0.00,684.00,VWS V14.01,2013-02-14 15:52:00,
2013-02-14 10:53:00,79.7,75.5,29.99,SSW,198,7.0,8.0,87,0.00,,FEW,0.00,612.00,VWS V14.01,2013-02-14 15:53:00,
2013-02-14 10:54:00,79.7,75.5,29.99,South,182,6.0,9.0,87,0.00,,FEW,0.00,612.00,VWS V14.01,2013-02-14 15:54:00,
2013-02-14 10:57:00,79.6,75.4,29.99,South,178,10.0,12.0,87,0.00,,FEW,0.00,276.00,VWS V14.01,2013-02-14 15:57:00,
2013-02-14 10:58:00,79.6,75.4,29.99,SW,215,8.0,12.0,87,0.00,,FEW,0.00,322.00,VWS V14.01,2013-02-14 15:58:00,
2013-02-14 10:59:00,79.5,75.3,29.99,South,177,9.0,12.0,87,0.00,,FEW,0.00,322.00,VWS V14.01,2013-02-14 15:59:00,
2013-02-14 11:00:00,79.5,75.3,29.98,South,183,7.0,12.0,87,0.00,,FEW,0.00,712.00,VWS V14.01,2013-02-14 16:00:00,
2013-02-14 11:02:00,79.5,75.3,29.98,South,182,6.0,7.0,87,0.00,,FEW,0.00,712.00,VWS V14.01,2013-02-14 16:02:00,
2013-02-14 11:03:00,79.6,75.4,29.98,South,184,5.0,9.0,87,0.00,,FEW,0.00,624.00,VWS V14.01,2013-02-14 16:03:00,
2013-02-14 11:04:00,79.6,75.4,29.98,South,169,6.0,9.0,87,0.00,,FEW,0.00,722.00,VWS V14.01,2013-02-14 16:04:00,
2013-02-14 11:07:00,79.6,75.4,29.98,SSW,198,7.0,10.0,87,0.00,,FEW,0.00,698.00,VWS V14.01,2013-02-14 16:07:00,
2013-02-14 11:08:00,79.7,75.5,29.98,South,190,4.0,10.0,87,0.00,,FEW,0.00,700.00,VWS V14.01,2013-02-14 16:08:00,
2013-02-14 11:09:00,79.7,75.5,29.98,SSW,196,6.0,12.0,87,0.00,,FEW,0.00,701.00,VWS V14.01,2013-02-14 16:09:00,
2013-02-14 11:10:00,79.8,75.6,29.98,South,186,7.0,12.0,87,0.00,,FEW,0.00,707.00,VWS V14.01,2013-02-14 16:10:00,
2013-02-14 11:12:00,79.8,75.6,29.98,SSW,196,7.0,9.0,87,0.00,,FEW,0.00,708.00,VWS V14.01,2013-02-14 16:12:00,
2013-02-14 11:13:00,79.8,75.6,29.98,SSW,212,7.0,10.0,87,0.00,,FEW,0.00,714.00,VWS V14.01,2013-02-14 16:13:00,
2013-02-14 11:14:00,79.8,75.2,29.98,South,172,8.0,11.0,86,0.00,,FEW,0.00,619.00,VWS V14.01,2013-02-14 16:14:00,
2013-02-14 11:17:00,79.9,75.7,29.98,South,184,8.0,11.0,87,0.00,,FEW,0.00,710.00,VWS V14.01,2013-02-14 16:17:00,
2013-02-14 11:18:00,79.9,75.7,29.98,SSW,202,7.0,11.0,87,0.00,,FEW,0.00,724.00,VWS V14.01,2013-02-14 16:18:00,
2013-02-14 11:19:00,79.9,75.7,29.98,South,190,11.0,11.0,87,0.00,,FEW,0.00,745.00,VWS V14.01,2013-02-14 16:19:00,
2013-02-14 11:20:00,79.8,75.2,29.98,South,175,9.0,11.0,86,0.00,,FEW,0.00,742.00,VWS V14.01,2013-02-14 16:20:00,
2013-02-14 11:22:00,79.8,75.2,29.98,SSW,196,7.0,9.0,86,0.00,,FEW,0.00,742.00,VWS V14.01,2013-02-14 16:22:00,
2013-02-14 11:23:00,79.9,75.7,29.98,South,169,10.0,10.0,87,0.00,,FEW,0.00,740.00,VWS V14.01,2013-02-14 16:23:00,
2013-02-14 11:24:00,79.9,75.7,29.98,SSW,211,5.0,10.0,87,0.00,,FEW,0.00,740.00,VWS V14.01,2013-02-14 16:24:00,
2013-02-14 11:27:00,79.9,75.3,29.98,SSW,210,10.0,11.0,86,0.00,,FEW,0.00,831.00,VWS V14.01,2013-02-14 16:27:00,
2013-02-14 11:28:00,79.8,75.2,29.98,South,190,11.0,11.0,86,0.00,,FEW,0.00,831.00,VWS V14.01,2013-02-14 16:28:00,
2013-02-14 11:29:00,79.8,75.6,29.98,SSW,196,7.0,11.0,87,0.00,,FEW,0.00,831.00,VWS V14.01,2013-02-14 16:29:00,
2013-02-14 11:30:00,80.0,75.8,29.98,SSW,198,7.0,11.0,87,0.00,,FEW,0.00,831.00,VWS V14.01,2013-02-14 16:30:00,
2013-02-14 11:32:00,80.0,75.4,29.98,WSW,238,7.0,12.0,86,0.00,,FEW,0.00,831.00,VWS V14.01,2013-02-14 16:32:00,
2013-02-14 11:40:00,79.9,75.3,29.98,South,184,9.0,12.0,86,0.00,,FEW,0.00,751.00,VWS V14.01,2013-02-14 16:40:00,
2013-02-14 11:50:00,79.9,75.0,29.97,SSW,202,9.0,13.0,85,0.00,,FEW,0.00,768.00,VWS V14.01,2013-02-14 16:50:00,
2013-02-14 12:00:00,80.2,75.6,29.97,SSW,202,7.0,12.0,86,0.00,,FEW,0.00,767.00,VWS V14.01,2013-02-14 17:00:00,
2013-02-14 12:10:00,80.2,75.6,29.97,SSW,202,8.0,13.0,86,0.00,,FEW,0.00,778.00,VWS V14.01,2013-02-14 17:10:00,
2013-02-14 12:20:00,80.2,75.6,29.96,SSW,202,7.0,13.0,86,0.00,,FEW,0.00,677.00,VWS V14.01,2013-02-14 17:20:00,
2013-02-14 12:30:00,80.3,75.7,29.96,SSW,202,9.0,14.0,86,0.00,,FEW,0.00,856.00,VWS V14.01,2013-02-14 17:30:00,
2013-02-14 12:40:00,80.3,75.7,29.96,SSW,202,8.0,14.0,86,0.00,,FEW,0.00,829.00,VWS V14.01,2013-02-14 17:40:00,
2013-02-14 12:50:00,80.3,75.4,29.95,SSW,202,9.0,14.0,85,0.00,,FEW,0.00,794.00,VWS V14.01,2013-02-14 17:50:00,
2013-02-14 13:00:00,80.3,75.4,29.94,SSW,202,8.0,13.0,85,0.00,,FEW,0.00,797.00,VWS V14.01,2013-02-14 18:00:00,
2013-02-14 13:10:00,80.2,75.3,29.94,SSW,202,9.0,15.0,85,0.00,,FEW,0.00,783.00,VWS V14.01,2013-02-14 18:10:00,
2013-02-14 13:20:00,80.3,75.0,29.93,SSW,202,8.0,15.0,84,0.00,,FEW,0.00,774.00,VWS V14.01,2013-02-14 18:20:00,
2013-02-14 13:30:00,80.4,75.1,29.92,SSW,202,8.0,13.0,84,0.00,,FEW,0.00,764.00,VWS V14.01,2013-02-14 18:30:00,
2013-02-14 13:40:00,80.4,75.5,29.92,SSW,202,8.0,14.0,85,0.00,,FEW,0.00,755.00,VWS V14.01,2013-02-14 18:40:00,
2013-02-14 13:50:00,80.2,75.3,29.92,South,180,9.0,14.0,85,0.00,,FEW,0.00,743.00,VWS V14.01,2013-02-14 18:50:00,
2013-02-14 14:00:00,80.2,75.3,29.91,SSW,202,9.0,17.0,85,0.00,,FEW,0.00,729.00,VWS V14.01,2013-02-14 19:00:00,
2013-02-14 14:10:00,80.2,75.3,29.91,South,180,8.0,14.0,85,0.00,,FEW,0.00,716.00,VWS V14.01,2013-02-14 19:10:00,
2013-02-14 14:20:00,80.2,75.3,29.91,SSW,202,9.0,15.0,85,0.00,,FEW,0.00,729.00,VWS V14.01,2013-02-14 19:20:00,
2013-02-14 14:30:00,80.0,75.1,29.91,SSW,202,8.0,13.0,85,0.00,,FEW,0.00,450.00,VWS V14.01,2013-02-14 19:30:00,
2013-02-14 14:40:00,80.2,75.3,29.91,SSW,202,8.0,13.0,85,0.00,,FEW,0.00,515.00,VWS V14.01,2013-02-14 19:40:00,
2013-02-14 14:50:00,79.9,75.0,29.90,SSW,202,8.0,13.0,85,0.00,,FEW,0.00,565.00,VWS V14.01,2013-02-14 19:50:00,
2013-02-14 15:00:00,80.1,75.2,29.90,South,180,6.0,11.0,85,0.00,,FEW,0.00,276.00,VWS V14.01,2013-02-14 20:00:00,
2013-02-14 15:10:00,79.6,74.7,29.90,South,180,6.0,10.0,85,0.00,,FEW,0.00,236.00,VWS V14.01,2013-02-14 20:10:00,
2013-02-14 15:20:00,79.6,75.1,29.90,South,180,5.0,11.0,86,0.00,,FEW,0.00,259.00,VWS V14.01,2013-02-14 20:20:00,
2013-02-14 15:30:00,79.7,75.2,29.90,SSW,202,6.0,11.0,86,0.00,,FEW,0.00,366.00,VWS V14.01,2013-02-14 20:30:00,
2013-02-14 15:40:00,79.5,74.9,29.90,SSW,202,6.0,12.0,86,0.00,,FEW,0.00,356.00,VWS V14.01,2013-02-14 20:40:00,
2013-02-14 15:50:00,79.7,74.8,29.90,SSW,202,6.0,11.0,85,0.00,,FEW,0.00,365.00,VWS V14.01,2013-02-14 20:50:00,
2013-02-14 16:00:00,79.5,74.9,29.90,South,180,6.0,10.0,86,0.00,,FEW,0.00,297.00,VWS V14.01,2013-02-14 21:00:00,
2013-02-14 16:10:00,79.7,75.2,29.90,South,180,6.0,10.0,86,0.00,,FEW,0.00,190.00,VWS V14.01,2013-02-14 21:10:00,
2013-02-14 16:20:00,79.6,75.1,29.90,South,180,5.0,10.0,86,0.00,,FEW,0.00,206.00,VWS V14.01,2013-02-14 21:20:00,
2013-02-14 16:30:00,79.6,75.1,29.90,SSW,202,5.0,8.0,86,0.00,,FEW,0.00,152.00,VWS V14.01,2013-02-14 21:30:00,
2013-02-14 16:40:00,79.6,75.1,29.90,South,180,5.0,9.0,86,0.00,,FEW,0.00,121.00,VWS V14.01,2013-02-14 21:40:00,
2013-02-14 16:50:00,79.5,75.3,29.90,South,180,4.0,7.0,87,0.00,,FEW,0.00,116.00,VWS V14.01,2013-02-14 21:50:00,
2013-02-14 17:00:00,79.3,75.1,29.90,South,180,5.0,8.0,87,0.00,,FEW,0.00,153.00,VWS V14.01,2013-02-14 22:00:00,
2013-02-14 17:10:00,79.1,74.9,29.90,South,180,5.0,8.0,87,0.00,,FEW,0.00,80.00,VWS V14.01,2013-02-14 22:10:00,
2013-02-14 17:20:00,79.1,74.9,29.90,SSW,202,5.0,8.0,87,0.00,,FEW,0.00,63.00,VWS V14.01,2013-02-14 22:20:00,
2013-02-14 17:30:00,78.8,74.6,29.90,SSW,202,4.0,7.0,87,0.00,,FEW,0.00,43.00,VWS V14.01,2013-02-14 22:30:00,
2013-02-14 17:40:00,78.7,74.8,29.90,South,180,3.0,6.0,88,0.00,,FEW,0.00,26.00,VWS V14.01,2013-02-14 22:40:00,
2013-02-14 17:50:00,78.6,74.8,29.90,SSW,202,3.0,6.0,88,0.00,,FEW,0.00,25.00,VWS V14.01,2013-02-14 22:50:00,
2013-02-14 18:00:00,78.5,74.7,29.90,SSW,202,4.0,7.0,88,0.00,,FEW,0.00,16.00,VWS V14.01,2013-02-14 23:00:00,
2013-02-14 18:10:00,78.3,74.5,29.90,SSW,202,4.0,7.0,88,0.00,,FEW,0.00,10.00,VWS V14.01,2013-02-14 23:10:00,
2013-02-14 18:20:00,78.1,74.6,29.91,South,180,4.0,7.0,89,0.00,,FEW,0.00,1.00,VWS V14.01,2013-02-14 23:20:00,
2013-02-14 18:30:00,78.1,74.6,29.91,South,180,2.0,5.0,89,0.00,,FEW,0.00,0.00,VWS V14.01,2013-02-14 23:30:00,
2013-02-14 18:40:00,78.1,74.6,29.91,South,180,2.0,5.0,89,0.00,,FEW,0.00,0.00,VWS V14.01,2013-02-14 23:40:00,
2013-02-14 18:50:00,78.1,74.9,29.91,South,180,2.0,6.0,90,0.00,,FEW,0.00,0.00,VWS V14.01,2013-02-14 23:50:00,
2013-02-14 19:00:00,78.0,74.8,29.91,South,180,2.0,6.0,90,0.00,,FEW,0.00,0.00,VWS V14.01,2013-02-15 00:00:00,
2013-02-14 19:10:00,78.0,74.8,29.91,South,180,2.0,5.0,90,0.00,,FEW,0.00,0.00,VWS V14.01,2013-02-15 00:10:00,
2013-02-14 19:20:00,78.0,74.8,29.90,South,180,3.0,7.0,90,0.00,,FEW,0.00,0.00,VWS V14.01,2013-02-15 00:20:00,
2013-02-14 19:30:00,77.8,75.0,29.91,South,180,3.0,7.0,91,0.00,,FEW,0.00,0.00,VWS V14.01,2013-02-15 00:30:00,
2013-02-14 19:40:00,77.7,74.9,29.91,South,180,3.0,6.0,91,0.00,,FEW,0.00,0.00,VWS V14.01,2013-02-15 00:40:00,
2013-02-14 19:50:00,77.5,74.7,29.91,South,180,3.0,7.0,91,0.00,,FEW,0.00,0.00,VWS V14.01,2013-02-15 00:50:00,
2013-02-14 20:06:00,77.4,74.6,29.91,South,182,4.0,4.0,91,0.00,,FEW,0.00,0.00,VWS V14.01,2013-02-15 01:06:00,
2013-02-14 20:11:00,77.4,74.6,29.91,SSW,202,6.0,6.0,91,0.00,,FEW,0.00,0.00,VWS V14.01,2013-02-15 01:11:00,
2013-02-14 20:16:00,77.5,74.7,29.91,South,173,3.0,7.0,91,0.00,,FEW,0.00,0.00,VWS V14.01,2013-02-15 01:16:00,
2013-02-14 20:21:00,77.5,74.7,29.91,SSW,194,5.0,7.0,91,0.00,,FEW,0.00,0.00,VWS V14.01,2013-02-15 01:21:00,
2013-02-14 20:26:00,77.5,74.7,29.91,SSE,167,4.0,6.0,91,0.00,,FEW,0.00,0.00,VWS V14.01,2013-02-15 01:26:00,
2013-02-14 20:27:00,77.5,74.7,29.91,SSE,165,6.0,6.0,91,0.00,,FEW,0.00,0.00,VWS V14.01,2013-02-15 01:27:00,
2013-02-14 20:31:00,77.4,74.6,29.92,SSW,200,2.0,2.0,91,0.00,,FEW,0.00,0.00,VWS V14.01,2013-02-15 01:31:00,
2013-02-14 20:32:00,77.5,74.7,29.92,SSW,197,5.0,5.0,91,0.00,,FEW,0.00,0.00,VWS V14.01,2013-02-15 01:32:00,
2013-02-14 20:36:00,77.4,74.6,29.92,South,171,3.0,6.0,91,0.00,,FEW,0.00,0.00,VWS V14.01,2013-02-15 01:36:00,
2013-02-14 20:37:00,77.5,74.7,29.92,SSW,198,3.0,6.0,91,0.00,,FEW,0.00,0.00,VWS V14.01,2013-02-15 01:37:00,
2013-02-14 20:42:00,77.5,74.7,29.92,SSE,163,3.0,4.0,91,0.00,,FEW,0.00,0.00,VWS V14.01,2013-02-15 01:42:00,
2013-02-14 20:47:00,77.5,74.7,29.92,South,170,2.0,7.0,91,0.00,,FEW,0.00,0.00,VWS V14.01,2013-02-15 01:47:00,
2013-02-14 20:52:00,77.5,74.7,29.92,SSE,157,2.0,4.0,91,0.00,,FEW,0.00,0.00,VWS V14.01,2013-02-15 01:52:00,
2013-02-14 20:57:00,77.6,75.1,29.92,SSE,160,3.0,5.0,92,0.00,,FEW,0.00,0.00,VWS V14.01,2013-02-15 01:57:00,
2013-02-14 21:02:00,77.5,75.0,29.93,SSE,167,7.0,7.0,92,0.00,,FEW,0.00,0.00,VWS V14.01,2013-02-15 02:02:00,
2013-02-14 21:07:00,77.5,75.0,29.93,NW,313,8.0,13.0,92,0.00,,FEW,0.00,0.00,VWS V14.01,2013-02-15 02:07:00,
2013-02-14 21:08:00,77.4,74.2,29.93,North,350,7.0,14.0,90,0.00,,FEW,0.00,0.00,VWS V14.01,2013-02-15 02:08:00,
2013-02-14 21:12:00,75.1,71.3,29.93,NW,306,10.0,13.0,88,0.00,,FEW,0.00,0.00,VWS V14.01,2013-02-15 02:12:00,
2013-02-14 21:13:00,74.9,71.1,29.93,North,351,14.0,19.0,88,0.00,,FEW,0.00,0.00,VWS V14.01,2013-02-15 02:13:00,
2013-02-14 21:17:00,73.2,69.4,29.94,NNW,333,7.0,25.0,88,0.00,,FEW,0.00,0.00,VWS V14.01,2013-02-15 02:17:00,
2013-02-14 21:18:00,73.1,69.3,29.94,NNW,345,11.0,25.0,88,0.00,,FEW,0.00,0.00,VWS V14.01,2013-02-15 02:18:00,
2013-02-14 21:22:00,72.7,69.6,29.94,NW,306,9.0,16.0,90,0.05,,FEW,0.05,0.00,VWS V14.01,2013-02-15 02:22:00,
2013-02-14 21:23:00,72.7,69.6,29.94,NNW,331,9.0,16.0,90,0.07,,FEW,0.07,0.00,VWS V14.01,2013-02-15 02:23:00,
2013-02-14 21:27:00,72.1,69.3,29.94,NW,319,8.0,16.0,91,0.13,,FEW,0.13,0.00,VWS V14.01,2013-02-15 02:27:00,
2013-02-14 21:28:00,72.0,69.2,29.94,NNW,333,10.0,16.0,91,0.13,,FEW,0.13,0.00,VWS V14.01,2013-02-15 02:28:00,
2013-02-14 21:32:00,71.4,69.0,29.97,NNW,347,12.0,19.0,92,0.23,,FEW,0.23,0.00,VWS V14.01,2013-02-15 02:32:00,
2013-02-14 21:33:00,71.3,68.9,29.97,North,355,11.0,19.0,92,0.24,,FEW,0.24,0.00,VWS V14.01,2013-02-15 02:33:00,
2013-02-14 21:38:00,71.0,68.6,29.97,NNE,19,6.0,19.0,92,0.27,,FEW,0.27,0.00,VWS V14.01,2013-02-15 02:38:00,
2013-02-14 21:43:00,70.6,68.5,29.97,North,355,11.0,16.0,93,0.27,,FEW,0.27,0.00,VWS V14.01,2013-02-15 02:43:00,
2013-02-14 21:48:00,70.4,68.3,29.97,NW,322,10.0,16.0,93,0.27,,FEW,0.27,0.00,VWS V14.01,2013-02-15 02:48:00,
2013-02-14 21:53:00,70.1,68.0,29.97,NE,34,7.0,16.0,93,0.28,,FEW,0.28,0.00,VWS V14.01,2013-02-15 02:53:00,
2013-02-14 21:58:00,69.7,67.6,29.97,NNE,20,14.0,16.0,93,0.28,,FEW,0.28,0.00,VWS V14.01,2013-02-15 02:58:00,
2013-02-14 22:03:00,69.4,67.6,29.98,NNE,19,9.0,13.0,94,0.29,,FEW,0.29,0.00,VWS V14.01,2013-02-15 03:03:00,
2013-02-14 22:08:00,68.9,67.1,29.98,NNE,28,17.0,17.0,94,0.30,,FEW,0.30,0.00,VWS V14.01,2013-02-15 03:08:00,
2013-02-14 22:13:00,68.6,66.8,29.98,NE,51,9.0,16.0,94,0.30,,FEW,0.30,0.00,VWS V14.01,2013-02-15 03:13:00,
2013-02-14 22:14:00,68.6,66.8,29.98,NNE,29,6.0,16.0,94,0.30,,FEW,0.30,0.00,VWS V14.01,2013-02-15 03:14:00,
2013-02-14 22:18:00,68.3,66.5,29.98,NNE,23,6.0,17.0,94,0.31,,FEW,0.31,0.00,VWS V14.01,2013-02-15 03:18:00,
2013-02-14 22:19:00,68.3,66.5,29.98,ENE,59,5.0,17.0,94,0.31,,FEW,0.31,0.00,VWS V14.01,2013-02-15 03:19:00,
2013-02-14 22:23:00,68.5,67.0,29.98,NE,38,11.0,18.0,95,0.30,,FEW,0.32,0.00,VWS V14.01,2013-02-15 03:23:00,
2013-02-14 22:24:00,68.5,67.0,29.98,North,9,9.0,18.0,95,0.30,,FEW,0.32,0.00,VWS V14.01,2013-02-15 03:24:00,
2013-02-14 22:28:00,68.2,66.4,29.98,NNE,20,7.0,21.0,94,0.31,,FEW,0.33,0.00,VWS V14.01,2013-02-15 03:28:00,
2013-02-14 22:29:00,68.2,66.4,29.98,NNE,14,9.0,21.0,94,0.31,,FEW,0.33,0.00,VWS V14.01,2013-02-15 03:29:00,
2013-02-14 22:33:00,67.9,66.4,29.98,ENE,59,5.0,12.0,95,0.12,,FEW,0.33,0.00,VWS V14.01,2013-02-15 03:33:00,
2013-02-14 22:34:00,67.9,66.1,29.98,NNE,32,5.0,12.0,94,0.12,,FEW,0.33,0.00,VWS V14.01,2013-02-15 03:34:00,
2013-02-14 22:38:00,67.7,65.9,29.98,ENE,69,11.0,17.0,94,0.12,,FEW,0.33,0.00,VWS V14.01,2013-02-15 03:38:00,
2013-02-14 22:39:00,67.8,66.0,29.98,NE,40,7.0,17.0,94,0.12,,FEW,0.33,0.00,VWS V14.01,2013-02-15 03:39:00,
2013-02-14 22:43:00,67.7,66.2,29.98,NE,38,11.0,12.0,95,0.06,,FEW,0.33,0.00,VWS V14.01,2013-02-15 03:43:00,
2013-02-14 22:44:00,67.7,66.2,29.98,NE,36,5.0,12.0,95,0.06,,FEW,0.33,0.00,VWS V14.01,2013-02-15 03:44:00,
2013-02-14 22:49:00,67.7,66.2,29.97,NE,43,11.0,16.0,95,0.06,,FEW,0.33,0.00,VWS V14.01,2013-02-15 03:49:00,
2013-02-14 22:54:00,67.8,66.3,29.97,NNE,15,8.0,13.0,95,0.05,,FEW,0.33,0.00,VWS V14.01,2013-02-15 03:54:00,
2013-02-14 22:55:00,67.8,66.3,29.97,ENE,72,11.0,13.0,95,0.05,,FEW,0.33,0.00,VWS V14.01,2013-02-15 03:55:00,
2013-02-14 22:59:00,67.9,66.4,29.97,NNE,24,12.0,17.0,95,0.05,,FEW,0.33,0.00,VWS V14.01,2013-02-15 03:59:00,
2013-02-14 23:00:00,67.9,66.4,29.97,NE,39,7.0,17.0,95,0.05,,FEW,0.33,0.00,VWS V14.01,2013-02-15 04:00:00,
2013-02-14 23:04:00,67.9,66.4,29.97,NE,46,8.0,11.0,95,0.05,,FEW,0.33,0.00,VWS V14.01,2013-02-15 04:04:00,
2013-02-14 23:05:00,68.0,66.5,29.97,NE,35,9.0,13.0,95,0.05,,FEW,0.33,0.00,VWS V14.01,2013-02-15 04:05:00,
2013-02-14 23:09:00,68.0,66.5,29.97,NE,51,11.0,16.0,95,0.05,,FEW,0.33,0.00,VWS V14.01,2013-02-15 04:09:00,
2013-02-14 23:10:00,68.0,66.5,29.97,NE,48,12.0,16.0,95,0.05,,FEW,0.33,0.00,VWS V14.01,2013-02-15 04:10:00,
2013-02-14 23:14:00,68.0,66.5,29.97,NE,41,13.0,17.0,95,0.03,,FEW,0.33,0.00,VWS V14.01,2013-02-15 04:14:00,
2013-02-14 23:15:00,68.0,66.5,29.97,NNE,23,9.0,17.0,95,0.03,,FEW,0.33,0.00,VWS V14.01,2013-02-15 04:15:00,
2013-02-14 23:19:00,68.1,66.6,29.97,NE,35,5.0,17.0,95,0.03,,FEW,0.33,0.00,VWS V14.01,2013-02-15 04:19:00,
2013-02-14 23:20:00,68.1,66.6,29.97,NNE,30,5.0,17.0,95,0.03,,FEW,0.33,0.00,VWS V14.01,2013-02-15 04:20:00,
2013-02-14 23:24:00,68.1,66.6,29.97,NE,43,5.0,13.0,95,0.01,,FEW,0.33,0.00,VWS V14.01,2013-02-15 04:24:00,
2013-02-14 23:25:00,68.1,66.6,29.97,NNE,27,11.0,13.0,95,0.01,,FEW,0.33,0.00,VWS V14.01,2013-02-15 04:25:00,
2013-02-14 23:30:00,67.9,66.4,29.97,NE,55,7.0,16.0,95,0.01,,FEW,0.33,0.00,VWS V14.01,2013-02-15 04:30:00,
2013-02-14 23:35:00,68.0,66.5,29.97,North,5,4.0,10.0,95,0.00,,FEW,0.33,0.00,VWS V14.01,2013-02-15 04:35:00,
2013-02-14 23:40:00,67.9,66.4,29.97,NNE,15,7.0,11.0,95,0.00,,FEW,0.33,0.00,VWS V14.01,2013-02-15 04:40:00,
2013-02-14 23:45:00,67.8,66.3,29.97,NNE,33,9.0,13.0,95,0.00,,FEW,0.33,0.00,VWS V14.01,2013-02-15 04:45:00,
2013-02-14 23:50:00,67.7,66.2,29.98,NNE,15,9.0,14.0,95,0.00,,FEW,0.33,0.00,VWS V14.01,2013-02-15 04:50:00,
2013-02-14 23:55:00,67.7,66.2,29.98,NE,47,8.0,12.0,95,0.00,,FEW,0.33,0.00,VWS V14.01,2013-02-15 04:55:00,
2013-02-14 23:56:00,67.7,66.2,29.98,NNE,26,9.0,12.0,95,0.00,,FEW,0.33,0.00,VWS V14.01,2013-02-15 04:56:00,